Location: Kitt Peak
(31.9639°N, 111.5992°W)
Time: 12:41:55
(UTC-07:00)

Amateur Radio Satellites - All Passes

Search period start: 19 November 2017 12:11
Search period end: 20 November 2017 12:11
Location: Kitt Peak, 31.9639°N, 111.5992°W

Satellite Date Start Highest point End Downlink Frequencies (MHz)
Time Altitude Azimuth
Oscar 19 19 Nov 12:12:01 12:15:22 18° 67° (ENE) 12:18:43 437.125/150
Gurwin Techsat 1B 19 Nov 12:21:13 12:24:20 16° 66° (ENE) 12:27:26 435.225
BUGSAT 1 19 Nov 12:27:49 12:31:51 46° 75° (ENE) 12:35:52 437.445
BEESAT 2 19 Nov 12:43:04 12:45:42 17° 53° (NE) 12:48:19 435.950
ESTCUBE 1 19 Nov 12:50:59 12:54:25 22° 290° (WNW) 12:57:52 437.505/2401.250
SPROUT 19 Nov 12:56:24 13:00:38 81° 285° (WNW) 13:04:51 437.525
DUCHIFAT 1 19 Nov 13:05:04 13:06:55 13° 266° (W) 13:08:47 145.980
O/OREOS (USA 219) 19 Nov 13:10:46 13:14:40 28° 103° (ESE) 13:18:36 437.305
BEESAT 3 19 Nov 13:13:05 13:16:52 49° 246° (WSW) 13:20:34 437.485
AO-7 19 Nov 13:17:32 13:21:44 15° 55° (NE) 13:25:56 .
VELOX 1 19 Nov 13:19:27 13:23:54 74° 284° (WNW) 13:28:18 145.980
UKube-1 19 Nov 13:23:46 13:25:39 13° 94° (E) 13:27:33 .
FALCONSAT 3 19 Nov 13:26:50 13:30:26 48° 5° (N) 13:34:00 435.103
Oscar 19 19 Nov 13:49:28 13:54:18 43° 261° (W) 13:59:09 437.125/150
50 SAT 19 Nov 13:50:21 13:53:32 59° 102° (ESE) 13:56:41 437.505
M-CUBED/EXP-1 PRIME 19 Nov 13:55:54 13:59:09 45° 70° (ENE) 14:02:39 437.505
Gurwin Techsat 1B 19 Nov 13:58:37 14:03:46 52° 260° (W) 14:08:57 435.225
ITAMSAT 1 19 Nov 14:02:25 14:03:40 11° 63° (ENE) 14:04:54 435.822/435.867
AO-85 19 Nov 14:05:44 14:10:30 60° 61° (ENE) 14:15:34 145.980
BUGSAT 1 19 Nov 14:06:34 14:07:21 10° 267° (W) 14:08:07 437.445
DX 1 19 Nov 14:11:14 14:15:37 89° 86° (E) 14:19:59 434.975-435.025
NO-84 19 Nov 14:19:47 14:21:35 13° 119° (ESE) 14:23:27 435.350 FM
BEESAT 2 19 Nov 14:19:54 14:23:29 32° 248° (WSW) 14:26:58 435.950
JUGNU 19 Nov 14:33:28 14:36:27 14° 165° (SSE) 14:39:26 437.505
O/OREOS (USA 219) 19 Nov 14:50:31 14:54:01 21° 297° (WNW) 14:57:32 437.305
UKube-1 19 Nov 14:57:44 15:01:48 41° 286° (WNW) 15:05:49 .
AO-7 19 Nov 15:04:59 15:13:15 83° 72° (ENE) 15:21:34 .
FALCONSAT 3 19 Nov 15:05:58 15:09:39 80° 199° (SSW) 15:13:21 435.103
BEESAT 19 Nov 15:08:22 15:12:22 27° 97° (E) 15:16:20 436.000
ITUPSAT 1 19 Nov 15:16:32 15:20:47 32° 98° (E) 15:25:00 437.325
DOVE 4 19 Nov 15:27:14 15:28:31 11° 64° (ENE) 15:29:47 437.250
ITAMSAT 1 19 Nov 15:37:12 15:42:25 75° 257° (WSW) 15:47:39 435.822/435.867
MOZHAYETS 4 19 Nov 15:46:48 15:51:22 77° 282° (WNW) 15:55:55
AO-85 19 Nov 15:48:20 15:50:31 13° 252° (WSW) 15:52:46 145.980
CUBESAT XI-V 19 Nov 15:53:51 15:57:41 25° 96° (E) 16:01:31 437.345
NO-84 19 Nov 15:55:03 15:58:28 41° 315° (NW) 16:02:11 435.350 FM
YUBILEINY 19 Nov 16:13:49 16:21:04 28° 74° (ENE) 16:28:14 435.215
JUGNU 19 Nov 16:20:21 16:24:50 23° 174° (S) 16:29:18 437.505
FALCONSAT 3 19 Nov 16:45:49 16:48:27 19° 211° (SSW) 16:51:04 435.103
BEESAT 19 Nov 16:46:10 16:49:58 24° 290° (WNW) 16:53:44 436.000
XW-2D 19 Nov 16:50:47 16:52:18 12° 69° (ENE) 16:53:48 145.860 - 145.880
ITUPSAT 1 19 Nov 16:54:53 16:58:20 20° 292° (WNW) 17:01:46 437.325
CUTE-I 19 Nov 16:57:50 17:01:29 19° 67° (ENE) 17:05:08 437.470
DOVE 4 19 Nov 17:00:33 17:05:23 71° 259° (W) 17:10:32 437.250
AO-7 19 Nov 17:02:10 17:06:40 16° 266° (W) 17:11:13 .
XW-2B 19 Nov 17:04:25 17:06:57 18° 71° (ENE) 17:09:30 145.730 - 145.750
RS-15 19 Nov 17:06:40 17:14:16 19° 100° (E) 17:21:53 29.354- 29.394
HO-68 19 Nov 17:07:16 17:10:38 14° 59° (ENE) 17:14:01 435.675
NUDT-PHONESAT 19 Nov 17:26:55 17:29:50 23° 72° (ENE) 17:32:44 437.300
LilacSat-2 19 Nov 17:28:28 17:32:00 42° 75° (ENE) 17:35:34 437.200
XW-2C 19 Nov 17:28:50 17:32:19 39° 75° (ENE) 17:35:48 145.795 - 145.815
CUBESAT XI-V 19 Nov 17:31:05 17:34:54 25° 289° (WNW) 17:38:44 437.345
XW-2F 19 Nov 17:41:05 17:44:42 54° 76° (ENE) 17:48:19 145.980 - 146.000
KKS-1 19 Nov 17:51:56 17:56:22 69° 285° (WNW) 18:00:47 437.445
SRMSAT 19 Nov 18:01:47 18:05:36 18° 167° (SSE) 18:09:25 437.500
JUGNU 19 Nov 18:08:40 18:13:16 24° 184° (S) 18:17:50 437.505
YUBILEINY 19 Nov 18:09:37 18:18:07 54° 270° (W) 18:26:34 435.215
KAITUO 1B 19 Nov 18:12:04 18:15:42 70° 259° (WSW) 18:19:22 145.475/437.950
STARS 19 Nov 18:21:15 18:25:38 86° 286° (WNW) 18:30:00 437.465
XW-2D 19 Nov 18:22:47 18:26:07 31° 262° (W) 18:29:28 145.860 - 145.880
CUTE 1.7 + AOD 2 19 Nov 18:27:46 18:31:44 44° 74° (ENE) 18:35:44 437.475
UWE-3 19 Nov 18:31:39 18:34:17 16° 69° (ENE) 18:36:54 435.000/436.395/437.385
CUTE-I 19 Nov 18:36:03 18:41:07 44° 260° (W) 18:46:15 437.470
XW-2B 19 Nov 18:38:04 18:40:56 21° 264° (W) 18:43:49 145.730 - 145.750
HO-68 19 Nov 18:50:08 18:57:20 90° 87° (E) 19:04:34 435.675
NUDT-PHONESAT 19 Nov 19:01:25 19:03:35 15° 265° (W) 19:05:47 437.300
SEEDS 19 Nov 19:01:31 19:05:37 69° 77° (ENE) 19:09:46 437.485
CUBEBUG 2 19 Nov 19:05:13 19:09:52 75° 77° (ENE) 19:14:24 437.445
RS-15 19 Nov 19:12:50 19:25:07 90° 327° (NNW) 19:37:30 29.354- 29.394
AAUSAT CUBESAT 2 19 Nov 19:13:58 19:17:43 37° 74° (ENE) 19:21:32 437.432
XW-2A 19 Nov 19:15:45 19:18:54 43° 76° (ENE) 19:22:04 145.665 - 145.685
AO-73 19 Nov 19:17:14 19:20:36 22° 72° (ENE) 19:23:56 145.935
STRAND 1 19 Nov 19:20:27 19:25:08 36° 99° (E) 19:29:46 437.568
Oscar 11 19 Nov 19:35:32 19:38:57 24° 71° (ENE) 19:42:23 .
SRMSAT 19 Nov 19:49:27 19:54:10 25° 177° (S) 19:58:55 437.500
JUGNU 19 Nov 19:58:07 20:01:39 16° 193° (SSW) 20:05:12 437.505
ZACube-1 19 Nov 20:00:06 20:04:29 89° 87° (E) 20:08:48 437.345
UWE-3 19 Nov 20:06:13 20:10:24 37° 261° (W) 20:14:30 435.000/436.395/437.385
CUTE 1.7 + AOD 2 19 Nov 20:06:46 20:07:43 11° 267° (W) 20:08:40 437.475
nSIGHT-1 19 Nov 20:17:39 20:20:24 27° 129° (SE) 20:23:11 .
FO-29 19 Nov 20:21:37 20:28:53 41° 97° (E) 20:35:38 435.910
HO-68 19 Nov 20:43:23 20:45:44 12° 268° (W) 20:48:05 435.675
AAUSAT CUBESAT 2 19 Nov 20:51:29 20:53:16 12° 267° (W) 20:55:02 437.432
AO-73 19 Nov 20:53:12 20:56:41 23° 263° (W) 21:00:08 145.935
ISS 19 Nov 20:55:50 20:59:03 66° 134° (SE) 21:02:18 437.550
STRAND 1 19 Nov 21:00:16 21:04:00 21° 292° (WNW) 21:07:44 437.568
Oscar 11 19 Nov 21:11:39 21:14:58 22° 264° (W) 21:18:17 .
SO-50 19 Nov 21:19:25 21:23:02 25° 111° (ESE) 21:26:39 436.795
Max Valier Satellite 19 Nov 21:26:43 21:30:21 67° 77° (ENE) 21:33:58 145.860
EO-88 19 Nov 21:29:01 21:32:29 46° 75° (ENE) 21:35:57 145.990 - 145.960
RS-15 19 Nov 21:29:38 21:39:19 26° 319° (NW) 21:49:01 29.354- 29.394
DELFI C3 19 Nov 21:34:47 21:38:40 60° 260° (W) 21:42:35 145.870
SRMSAT 19 Nov 21:38:13 21:42:47 23° 187° (S) 21:47:22 437.500
UNISAT 6 19 Nov 21:38:26 21:42:10 29° 97° (E) 21:45:53 437.425
TIGRISAT 19 Nov 21:43:13 21:46:59 30° 98° (E) 21:50:43 435.000
nSIGHT-1 19 Nov 21:54:09 21:56:37 20° 323° (NW) 21:59:06 .
LO-87 19 Nov 22:00:53 22:02:11 12° 69° (ENE) 22:03:30 145.935 - 145.965
FO-29 19 Nov 22:06:43 22:13:36 35° 293° (WNW) 22:20:09 435.910
ESTCUBE 1 19 Nov 22:10:03 22:12:25 14° 68° (ENE) 22:14:47 437.505/2401.250
NO-84 19 Nov 22:32:16 22:35:09 17° 37° (NE) 22:38:00 435.350 FM
ISS 19 Nov 22:34:28 22:35:49 12° 328° (NNW) 22:37:11 437.550
AIST 2D 19 Nov 22:42:21 22:43:59 13° 94° (E) 22:45:35 435.315
SO-50 19 Nov 22:59:37 23:03:20 26° 305° (NW) 23:07:06 436.795
PRISM 19 Nov 23:06:31 23:10:39 68° 284° (WNW) 23:14:45 437.425
UNISAT 6 19 Nov 23:15:50 23:18:36 17° 291° (WNW) 23:21:23 437.425
TIGRISAT 19 Nov 23:20:41 23:23:23 17° 291° (WNW) 23:26:04 435.000
EO-79 19 Nov 23:22:34 23:24:46 14° 94° (E) 23:26:58 145.935-145.965
O/OREOS (USA 219) 19 Nov 23:25:34 23:29:18 25° 64° (ENE) 23:33:00 437.305
NANOSAT C BR1 19 Nov 23:26:54 23:29:03 14° 94° (E) 23:31:10 145.865
SRMSAT 19 Nov 23:28:23 23:31:21 14° 196° (SSW) 23:34:18 437.500
LO-87 19 Nov 23:32:01 23:35:14 30° 262° (W) 23:38:27 145.935 - 145.965
POLYITAN 1 19 Nov 23:36:33 23:39:45 21° 96° (E) 23:42:56 437.675
SPROUT 19 Nov 23:44:33 23:48:30 38° 74° (ENE) 23:52:29 437.525
ESTCUBE 1 19 Nov 23:44:36 23:48:48 41° 261° (W) 23:53:02 437.505/2401.250
QB50P2 19 Nov 23:59:02 00:03:05 47° 100° (E) 00:07:06 145.880/145.840
NO-84 20 Nov 00:08:38 00:12:49 58° 233° (SW) 00:16:51 435.350 FM
VELOX 1 20 Nov 00:11:26 00:15:42 51° 75° (ENE) 00:20:01 145.980
AIST 2D 20 Nov 00:14:10 00:17:07 25° 286° (WNW) 00:20:03 435.315
PCSat 20 Nov 00:21:57 00:27:17 65° 112° (ESE) 00:32:39 145.827
DUCHIFAT 1 20 Nov 00:51:03 00:55:07 54° 285° (WNW) 00:59:10 145.980
EO-79 20 Nov 00:56:47 01:00:34 34° 287° (WNW) 01:04:21 145.935-145.965
NANOSAT C BR1 20 Nov 01:01:01 01:04:48 35° 287° (WNW) 01:08:35 145.865
DX 1 20 Nov 01:01:45 01:05:48 39° 73° (ENE) 01:09:52 434.975-435.025
O/OREOS (USA 219) 20 Nov 01:05:00 01:08:32 23° 259° (WSW) 01:12:03 437.305
POLYITAN 1 20 Nov 01:12:06 01:15:24 23° 289° (WNW) 01:18:41 437.675
SPROUT 20 Nov 01:22:24 01:24:29 13° 266° (W) 01:26:33 437.525
QB50P2 20 Nov 01:37:15 01:38:23 11° 293° (WNW) 01:39:30 145.880/145.840
50 SAT 20 Nov 01:44:24 01:47:25 36° 261° (W) 01:50:26 437.505
UKube-1 20 Nov 01:46:34 01:50:52 85° 78° (ENE) 01:55:12 .
BUGSAT 1 20 Nov 01:49:23 01:53:16 48° 285° (WNW) 01:57:06 437.445
VELOX 1 20 Nov 01:51:29 01:52:21 10° 267° (W) 01:53:14 145.980
Oscar 19 20 Nov 02:05:29 02:10:39 83° 284° (WNW) 02:15:49 437.125/150
PCSat 20 Nov 02:08:01 02:11:06 15° 308° (NW) 02:14:11 145.827
BEESAT 20 Nov 02:10:37 02:13:54 19° 68° (ENE) 02:17:12 436.000
RS-15 20 Nov 02:11:11 02:18:47 18° 33° (NNE) 02:26:06 29.354- 29.394
ITUPSAT 1 20 Nov 02:18:54 02:22:36 23° 69° (ENE) 02:26:18 437.325
Gurwin Techsat 1B 20 Nov 02:19:35 02:24:55 88° 284° (WNW) 02:30:14 435.225
DX 1 20 Nov 02:39:57 02:42:05 13° 266° (W) 02:44:14 434.975-435.025
MOZHAYETS 4 20 Nov 02:43:29 02:47:56 56° 75° (ENE) 02:52:24
CUBESAT XI-V 20 Nov 02:53:42 02:56:05 14° 67° (ENE) 02:58:28 437.345
BEESAT 3 20 Nov 02:57:11 03:01:07 85° 121° (ESE) 03:05:08 437.485
M-CUBED/EXP-1 PRIME 20 Nov 03:11:35 03:16:10 85° 105° (ESE) 03:20:49 437.505
AO-7 20 Nov 03:12:32 03:20:09 38° 100° (E) 03:27:43 .
ISS 20 Nov 03:29:53 03:30:05 10° 30° (NNE) 03:30:17 437.550
BEESAT 20 Nov 03:47:00 03:51:22 35° 261° (W) 03:55:44 436.000
ITAMSAT 1 20 Nov 03:55:03 04:00:11 58° 101° (E) 04:05:16 435.822/435.867
ITUPSAT 1 20 Nov 03:56:03 04:00:12 29° 262° (W) 04:04:21 437.325
BEESAT 2 20 Nov 04:05:28 04:09:22 58° 299° (WNW) 04:13:22 435.950
AO-85 20 Nov 04:16:08 04:19:54 57° 116° (ESE) 04:23:46 145.980
RS-15 20 Nov 04:22:19 04:34:02 67° 59° (ENE) 04:45:04 29.354- 29.394
nSIGHT-1 20 Nov 04:23:57 04:26:58 37° 41° (NE) 04:29:56 .
MOZHAYETS 4 20 Nov 04:24:59 04:25:20 10° 268° (W) 04:25:41
CUBESAT XI-V 20 Nov 04:28:40 04:33:01 44° 261° (W) 04:37:24 437.345
KKS-1 20 Nov 04:44:41 04:49:04 57° 75° (ENE) 04:53:28 437.445
ISS 20 Nov 05:03:43 05:06:58 88° 230° (SW) 05:10:12 437.550
DOVE 4 20 Nov 05:04:36 05:09:35 49° 99° (E) 05:14:16 437.250
AO-7 20 Nov 05:05:11 05:12:46 41° 295° (WNW) 05:20:23 .
YUBILEINY 20 Nov 05:08:19 05:16:03 37° 87° (E) 05:23:49 435.215
STARS 20 Nov 05:12:41 05:16:52 44° 74° (ENE) 05:21:05 437.465
ITAMSAT 1 20 Nov 05:36:30 05:39:05 14° 295° (WNW) 05:41:39 435.822/435.867
KAITUO 1B 20 Nov 05:48:45 05:51:02 15° 95° (E) 05:53:19 145.475/437.950
XW-2D 20 Nov 05:59:30 06:02:57 33° 98° (E) 06:06:25 145.860 - 145.880
nSIGHT-1 20 Nov 06:01:28 06:02:53 12° 234° (SW) 06:04:18 .
XW-2B 20 Nov 06:14:04 06:17:46 50° 100° (E) 06:21:29 145.730 - 145.750
CUTE 1.7 + AOD 2 20 Nov 06:19:28 06:20:51 11° 93° (E) 06:22:14 437.475
HO-68 20 Nov 06:24:34 06:29:57 22° 95° (E) 06:35:17 435.675
STRAND 1 20 Nov 06:31:35 06:36:05 32° 71° (ENE) 06:40:37 437.568
NUDT-PHONESAT 20 Nov 06:34:16 06:37:56 65° 101° (E) 06:41:37 437.300
RS-15 20 Nov 06:36:19 06:45:20 28° 257° (WSW) 06:54:05 29.354- 29.394
XW-2C 20 Nov 06:39:31 06:43:18 66° 283° (WNW) 06:47:05 145.795 - 145.815
LilacSat-2 20 Nov 06:40:02 06:43:48 59° 283° (WNW) 06:47:35 437.200
DOVE 4 20 Nov 06:43:44 06:46:42 16° 294° (WNW) 06:49:34 437.250
SEEDS 20 Nov 06:51:03 06:53:47 17° 95° (E) 06:56:31 437.485
STARS 20 Nov 06:51:27 06:53:20 12° 266° (W) 06:55:13 437.465
XW-2F 20 Nov 06:51:27 06:55:06 48° 285° (WNW) 06:58:46 145.980 - 146.000
CUTE-I 20 Nov 06:57:44 07:03:06 74° 284° (WNW) 07:08:24 437.470
CUBEBUG 2 20 Nov 07:01:48 07:04:54 20° 96° (E) 07:08:00 437.445
YUBILEINY 20 Nov 07:04:37 07:12:37 40° 283° (WNW) 07:20:43 435.215
KAITUO 1B 20 Nov 07:21:51 07:24:57 25° 287° (WNW) 07:28:02 145.475/437.950
SO-50 20 Nov 07:34:13 07:38:52 72° 61° (ENE) 07:43:35 436.795
XW-2D 20 Nov 07:35:10 07:36:46 12° 291° (WNW) 07:38:22 145.860 - 145.880
CUTE 1.7 + AOD 2 20 Nov 07:52:46 07:56:49 44° 285° (WNW) 08:00:53 437.475
ZACube-1 20 Nov 07:53:40 07:56:59 23° 96° (E) 08:00:19 437.345
UWE-3 20 Nov 08:00:12 08:04:16 60° 100° (E) 08:08:22 435.000/436.395/437.385
HO-68 20 Nov 08:10:57 08:17:54 55° 289° (WNW) 08:24:49 435.675
STRAND 1 20 Nov 08:11:08 08:15:12 24° 264° (W) 08:19:18 437.568
FO-29 20 Nov 08:11:43 08:17:59 69° 74° (ENE) 08:25:07 435.910
XW-2A 20 Nov 08:13:59 08:17:20 81° 282° (WNW) 08:20:41 145.665 - 145.685
SEEDS 20 Nov 08:25:44 08:29:26 30° 287° (WNW) 08:33:09 437.485
UNISAT 6 20 Nov 08:33:11 08:36:03 16° 69° (ENE) 08:38:52 437.425
AAUSAT CUBESAT 2 20 Nov 08:35:30 08:39:37 56° 284° (WNW) 08:43:42 437.432
TIGRISAT 20 Nov 08:37:47 08:40:42 17° 69° (ENE) 08:43:35 435.000
CUBEBUG 2 20 Nov 08:38:09 08:41:25 23° 289° (WNW) 08:44:39 437.445
AO-73 20 Nov 08:44:41 08:48:50 87° 278° (W) 08:53:00 145.935
Oscar 11 20 Nov 09:02:19 09:06:39 84° 284° (WNW) 09:10:59 .
PCSat 20 Nov 09:15:41 09:19:33 19° 54° (NE) 09:23:23 145.827
DELFI C3 20 Nov 09:16:45 09:19:57 23° 96° (E) 09:23:07 145.870
ZACube-1 20 Nov 09:30:01 09:33:06 21° 289° (WNW) 09:36:13 437.345
FALCONSAT 3 20 Nov 09:34:38 09:38:04 38° 154° (SSE) 09:41:31 435.103
PRISM 20 Nov 09:50:36 09:54:26 40° 74° (ENE) 09:58:18 437.425
FO-29 20 Nov 10:00:05 10:03:43 16° 271° (W) 10:07:37 435.910
UNISAT 6 20 Nov 10:08:09 10:12:25 37° 261° (W) 10:16:37 437.425
TIGRISAT 20 Nov 10:12:48 10:17:03 36° 262° (W) 10:21:14 435.000
Max Valier Satellite 20 Nov 10:34:49 10:38:16 40° 285° (WNW) 10:41:43 145.860
EO-88 20 Nov 10:35:22 10:38:58 62° 283° (WNW) 10:42:34 145.990 - 145.960
AIST 2D 20 Nov 10:42:46 10:46:03 43° 75° (ENE) 10:49:20 435.315
QB50P2 20 Nov 10:47:26 10:50:28 19° 70° (ENE) 10:53:29 145.880/145.840
DELFI C3 20 Nov 10:51:37 10:54:29 19° 289° (WNW) 10:57:21 145.870
PCSat 20 Nov 10:57:58 11:03:09 48° 250° (WSW) 11:08:18 145.827
LO-87 20 Nov 11:03:24 11:06:22 25° 97° (E) 11:09:17 145.935 - 145.965
FALCONSAT 3 20 Nov 11:13:25 11:17:05 64° 348° (NNW) 11:20:45 435.103
BEESAT 3 20 Nov 11:20:29 11:21:36 11° 50° (NE) 11:22:42 437.485
PRISM 20 Nov 11:28:23 11:29:49 12° 266° (W) 11:31:15 437.425
DUCHIFAT 1 20 Nov 11:37:22 11:41:29 52° 75° (ENE) 11:45:34 145.980
ESTCUBE 1 20 Nov 11:41:24 11:45:52 58° 100° (E) 11:50:19 437.505/2401.250
EO-79 20 Nov 11:43:22 11:47:36 87° 83° (E) 11:51:51 145.935-145.965
NANOSAT C BR1 20 Nov 11:47:16 11:51:29 84° 78° (ENE) 11:55:43 145.865
POLYITAN 1 20 Nov 11:58:30 12:02:41 60° 259° (W) 12:06:53 437.675
